TimeCDT,TemperatureF,Dew PointF,Humidity,Sea Level PressureIn,VisibilityMPH,Wind Direction,Wind SpeedMPH,Gust SpeedMPH,PrecipitationIn,Events,Conditions,WindDirDegrees,DateUTC
12:53 AM,35.1,21.0,57,30.39,10.0,NW,5.8,-,N/A,,Mostly Cloudy,310,2012-10-06 05:53:00
1:53 AM,32.0,19.0,59,30.38,10.0,Calm,Calm,-,N/A,,Clear,0,2012-10-06 06:53:00
2:53 AM,25.0,17.1,72,30.40,10.0,NNW,6.9,-,N/A,,Clear,330,2012-10-06 07:53:00
3:53 AM,26.1,18.0,71,30.39,10.0,NW,9.2,-,N/A,,Clear,320,2012-10-06 08:53:00
4:53 AM,24.8,17.6,74,30.34,10.0,NW,5.8,-,N/A,,Clear,320,2012-10-06 09:53:00
5:53 AM,24.1,18.0,77,30.39,10.0,NW,5.8,-,N/A,,Clear,310,2012-10-06 10:53:00
6:53 AM,24.1,18.0,77,30.40,10.0,NNW,3.5,-,N/A,,Clear,340,2012-10-06 11:53:00
7:53 AM,25.0,19.0,78,30.41,10.0,NW,3.5,-,N/A,,Clear,310,2012-10-06 12:53:00
8:53 AM,32.0,21.0,64,30.44,10.0,NW,3.5,-,N/A,,Clear,310,2012-10-06 13:53:00
9:53 AM,37.0,19.9,50,30.46,10.0,West,3.5,-,N/A,,Clear,280,2012-10-06 14:53:00
10:53 AM,39.0,19.0,45,30.45,10.0,North,9.2,-,N/A,,Partly Cloudy,350,2012-10-06 15:53:00
11:53 AM,39.0,18.0,43,30.45,10.0,North,6.9,-,N/A,,Clear,350,2012-10-06 16:53:00
12:53 PM,39.9,18.0,41,30.44,10.0,NW,10.4,-,N/A,,Partly Cloudy,320,2012-10-06 17:53:00
1:53 PM,42.1,18.0,38,30.42,10.0,NNW,11.5,-,N/A,,Mostly Cloudy,330,2012-10-06 18:53:00
2:53 PM,43.0,17.1,35,30.40,10.0,NNW,12.7,17.3,N/A,,Mostly Cloudy,330,2012-10-06 19:53:00
3:53 PM,44.1,16.0,32,30.39,10.0,West,10.4,-,N/A,,Partly Cloudy,280,2012-10-06 20:53:00
4:53 PM,46.0,14.0,28,30.38,10.0,NW,9.2,-,N/A,,Clear,320,2012-10-06 21:53:00
5:53 PM,46.4,14.0,27,30.30,10.0,WNW,11.5,-,N/A,,Clear,300,2012-10-06 22:53:00
6:53 PM,39.0,16.0,39,30.37,10.0,WNW,4.6,-,N/A,,Clear,290,2012-10-06 23:53:00
7:53 PM,32.0,15.1,50,30.38,10.0,West,6.9,-,N/A,,Clear,270,2012-10-07 00:53:00
8:53 PM,28.9,14.0,54,30.38,10.0,Calm,Calm,-,N/A,,Clear,0,2012-10-07 01:53:00
9:53 PM,27.0,14.0,58,30.38,10.0,SW,6.9,-,N/A,,Clear,220,2012-10-07 02:53:00
10:53 PM,26.1,15.1,63,30.38,10.0,NNW,5.8,-,N/A,,Clear,330,2012-10-07 03:53:00
11:53 PM,26.1,18.0,71,30.38,10.0,Calm,Calm,-,N/A,,Clear,0,2012-10-07 04:53:00